Time,TemperatureF,DewpointF,PressureIn,WindDirection,WindDirectionDegrees,WindSpeedMPH,WindSpeedGustMPH,Humidity,HourlyPrecipIn,Conditions,Clouds,dailyrainin,SoftwareType,DateUTC
2013-03-04 00:14:00,59.4,17.1,29.77,WNW,292,1.7,-999.0,19,-99.99,,,0.00,Acu-Link.com,2013-03-04 07:14:00,
2013-03-04 00:29:00,58.1,18.4,29.77,WSW,247,0.0,-999.0,21,-99.99,,,0.00,Acu-Link.com,2013-03-04 07:29:00,
2013-03-04 00:44:00,56.3,18.0,29.77,West,270,0.0,-999.0,22,-99.99,,,0.00,Acu-Link.com,2013-03-04 07:44:00,
2013-03-04 00:59:00,54.0,18.0,29.78,WSW,247,0.0,-999.0,24,-99.99,,,0.00,Acu-Link.com,2013-03-04 07:59:00,
2013-03-04 01:14:00,52.5,17.7,29.78,SW,225,0.0,-999.0,25,-99.99,,,0.00,Acu-Link.com,2013-03-04 08:14:00,
2013-03-04 01:29:00,51.3,16.7,29.78,North,0,0.0,-999.0,25,-99.99,,,0.00,Acu-Link.com,2013-03-04 08:29:00,
2013-03-04 01:44:00,50.0,16.5,29.78,NNW,337,0.0,-999.0,26,-99.99,,,0.00,Acu-Link.com,2013-03-04 08:44:00,
2013-03-04 02:00:00,49.1,16.6,29.77,SSE,157,0.0,-999.0,27,-99.99,,,0.00,Acu-Link.com,2013-03-04 09:00:00,
2013-03-04 02:20:00,48.7,17.1,29.77,SSW,202,0.0,-999.0,28,-99.99,,,0.00,Acu-Link.com,2013-03-04 09:20:00,
2013-03-04 02:35:00,48.4,16.0,29.76,ENE,67,0.0,-999.0,27,-99.99,,,0.00,Acu-Link.com,2013-03-04 09:35:00,
2013-03-04 02:50:00,46.8,16.2,29.75,NNW,337,0.0,-999.0,29,-99.99,,,0.00,Acu-Link.com,2013-03-04 09:50:00,
2013-03-04 03:05:00,47.3,16.7,29.76,West,270,0.0,-999.0,29,-99.99,,,0.00,Acu-Link.com,2013-03-04 10:05:00,
2013-03-04 03:20:00,46.2,16.5,29.74,ESE,112,0.0,-999.0,30,-99.99,,,0.00,Acu-Link.com,2013-03-04 10:20:00,
2013-03-04 03:35:00,44.6,16.6,29.75,NE,45,0.0,-999.0,32,-99.99,,,0.00,Acu-Link.com,2013-03-04 10:35:00,
2013-03-04 03:51:00,46.0,17.1,29.75,NNE,22,0.0,-999.0,31,-99.99,,,0.00,Acu-Link.com,2013-03-04 10:51:00,
2013-03-04 04:06:00,46.8,17.8,29.75,ESE,112,0.0,-999.0,31,-99.99,,,0.00,Acu-Link.com,2013-03-04 11:06:00,
2013-03-04 04:21:00,46.0,17.8,29.76,SW,225,1.7,-999.0,32,-99.99,,,0.00,Acu-Link.com,2013-03-04 11:21:00,
2013-03-04 04:36:00,48.9,16.4,29.75,NNW,337,1.7,-999.0,27,-99.99,,,0.00,Acu-Link.com,2013-03-04 11:36:00,
2013-03-04 04:51:00,49.1,16.6,29.76,NW,315,1.1,-999.0,27,-99.99,,,0.00,Acu-Link.com,2013-03-04 11:51:00,
2013-03-04 05:06:00,48.4,16.8,29.76,NE,45,2.2,-999.0,28,-99.99,,,0.00,Acu-Link.com,2013-03-04 12:06:00,
2013-03-04 05:21:00,47.7,17.0,29.77,East,90,0.0,-999.0,29,-99.99,,,0.00,Acu-Link.com,2013-03-04 12:21:00,
2013-03-04 05:36:00,47.7,17.0,29.77,NNE,22,0.0,-999.0,29,-99.99,,,0.00,Acu-Link.com,2013-03-04 12:36:00,
2013-03-04 05:51:00,47.8,17.9,29.78,NW,315,0.0,-999.0,30,-99.99,,,0.00,Acu-Link.com,2013-03-04 12:51:00,
2013-03-04 06:07:00,48.6,17.0,29.78,East,90,0.0,-999.0,28,-99.99,,,0.00,Acu-Link.com,2013-03-04 13:07:00,
2013-03-04 06:22:00,49.8,17.2,29.78,NNE,22,2.7,-999.0,27,-99.99,,,0.00,Acu-Link.com,2013-03-04 13:22:00,
2013-03-04 06:37:00,50.5,16.9,29.77,North,0,3.7,-999.0,26,-99.99,,,0.00,Acu-Link.com,2013-03-04 13:37:00,
2013-03-04 06:52:00,51.4,16.8,29.78,SE,135,0.0,-999.0,25,-99.99,,,0.00,Acu-Link.com,2013-03-04 13:52:00,
2013-03-04 07:07:00,52.5,17.7,29.78,SSW,202,0.0,-999.0,25,-99.99,,,0.00,Acu-Link.com,2013-03-04 14:07:00,
2013-03-04 07:22:00,55.2,19.1,29.78,WNW,292,1.7,-999.0,24,-99.99,,,0.00,Acu-Link.com,2013-03-04 14:22:00,
2013-03-04 07:38:00,58.8,19.0,29.78,ESE,112,3.2,-999.0,21,-99.99,,,0.00,Acu-Link.com,2013-03-04 14:38:00,
2013-03-04 07:53:00,58.6,18.8,29.79,East,90,0.0,-999.0,21,-99.99,,,0.00,Acu-Link.com,2013-03-04 14:53:00,
2013-03-04 08:08:00,62.2,15.5,29.79,SSE,157,5.3,-999.0,16,-99.99,,,0.00,Acu-Link.com,2013-03-04 15:08:00,
2013-03-04 08:23:00,66.0,13.8,29.78,SE,135,3.2,-999.0,13,-99.99,,,0.00,Acu-Link.com,2013-03-04 15:23:00,
2013-03-04 08:39:00,65.3,14.9,29.77,SE,135,1.1,-999.0,14,-99.99,,,0.00,Acu-Link.com,2013-03-04 15:39:00,
2013-03-04 08:54:00,66.7,16.0,29.77,WSW,247,3.2,-999.0,14,-99.99,,,0.00,Acu-Link.com,2013-03-04 15:54:00,
2013-03-04 09:09:00,67.8,18.5,29.78,SW,225,2.7,-999.0,15,-99.99,,,0.00,Acu-Link.com,2013-03-04 16:09:00,
2013-03-04 09:24:00,69.6,19.9,29.77,WSW,247,7.8,-999.0,15,-99.99,,,0.00,Acu-Link.com,2013-03-04 16:24:00,
2013-03-04 09:39:00,69.6,19.9,29.76,SSW,202,5.3,-999.0,15,-99.99,,,0.00,Acu-Link.com,2013-03-04 16:39:00,
2013-03-04 09:54:00,70.9,19.3,29.76,SW,225,3.7,-999.0,14,-99.99,,,0.00,Acu-Link.com,2013-03-04 16:54:00,
2013-03-04 10:09:00,71.8,18.3,29.76,SSW,202,4.7,-999.0,13,-99.99,,,0.00,Acu-Link.com,2013-03-04 17:09:00,
2013-03-04 10:24:00,73.0,17.4,29.74,SSE,157,9.4,-999.0,12,-99.99,,,0.00,Acu-Link.com,2013-03-04 17:24:00,
2013-03-04 10:39:00,76.1,17.8,29.73,SW,225,4.2,-999.0,11,-99.99,,,0.00,Acu-Link.com,2013-03-04 17:39:00,
2013-03-04 10:55:00,75.9,13.0,29.73,SW,225,7.8,-999.0,9,-99.99,,,0.00,Acu-Link.com,2013-03-04 17:55:00,
2013-03-04 11:10:00,76.5,13.5,29.73,West,270,11.4,-999.0,9,-99.99,,,0.00,Acu-Link.com,2013-03-04 18:10:00,
2013-03-04 11:25:00,77.5,14.2,29.70,West,270,9.4,-999.0,9,-99.99,,,0.00,Acu-Link.com,2013-03-04 18:25:00,
2013-03-04 11:40:00,79.5,15.7,29.70,WSW,247,9.4,-999.0,9,-99.99,,,0.00,Acu-Link.com,2013-03-04 18:40:00,
2013-03-04 11:55:00,80.6,16.6,29.68,West,270,15.5,-999.0,9,-99.99,,,0.00,Acu-Link.com,2013-03-04 18:55:00,
2013-03-04 12:10:00,80.8,16.7,29.67,West,270,10.4,-999.0,9,-99.99,,,0.00,Acu-Link.com,2013-03-04 19:10:00,
2013-03-04 12:25:00,81.7,17.4,29.65,SW,225,13.0,-999.0,9,-99.99,,,0.00,Acu-Link.com,2013-03-04 19:25:00,
2013-03-04 12:40:00,82.0,22.3,29.63,SW,225,10.9,-999.0,11,-99.99,,,0.00,Acu-Link.com,2013-03-04 19:40:00,
2013-03-04 12:55:00,82.6,34.8,29.61,WSW,247,17.1,-999.0,18,-99.99,,,0.00,Acu-Link.com,2013-03-04 19:55:00,
2013-03-04 13:11:00,80.6,35.8,29.62,WNW,292,19.1,-999.0,20,-99.99,,,0.00,Acu-Link.com,2013-03-04 20:11:00,
2013-03-04 13:26:00,81.5,33.9,29.61,WNW,292,22.7,-999.0,18,-99.99,,,0.00,Acu-Link.com,2013-03-04 20:26:00,
2013-03-04 13:41:00,81.3,32.3,29.60,West,270,27.9,-999.0,17,-99.99,,,0.00,Acu-Link.com,2013-03-04 20:41:00,
2013-03-04 13:56:00,81.5,31.0,29.60,West,270,14.0,-999.0,16,-99.99,,,0.00,Acu-Link.com,2013-03-04 20:56:00,
2013-03-04 14:11:00,81.1,30.7,29.60,WSW,247,15.5,-999.0,16,-99.99,,,0.00,Acu-Link.com,2013-03-04 21:11:00,
2013-03-04 14:26:00,81.9,29.7,29.59,SW,225,18.1,-999.0,15,-99.99,,,0.00,Acu-Link.com,2013-03-04 21:26:00,
2013-03-04 14:41:00,81.3,27.5,29.59,West,270,14.0,-999.0,14,-99.99,,,0.00,Acu-Link.com,2013-03-04 21:41:00,
2013-03-04 14:56:00,81.3,27.5,29.60,West,270,9.9,-999.0,14,-99.99,,,0.00,Acu-Link.com,2013-03-04 21:56:00,
2013-03-04 15:11:00,80.4,28.5,29.59,West,270,14.0,-999.0,15,-99.99,,,0.00,Acu-Link.com,2013-03-04 22:11:00,
2013-03-04 15:27:00,80.6,28.7,29.60,West,270,10.4,-999.0,15,-99.99,,,0.00,Acu-Link.com,2013-03-04 22:27:00,
2013-03-04 15:42:00,80.8,28.8,29.60,WNW,292,15.0,-999.0,15,-99.99,,,0.00,Acu-Link.com,2013-03-04 22:42:00,
2013-03-04 15:57:00,80.1,29.9,29.60,SW,225,10.4,-999.0,16,-99.99,,,0.00,Acu-Link.com,2013-03-04 22:57:00,
2013-03-04 16:12:00,78.6,30.1,29.60,West,270,15.5,-999.0,17,-99.99,,,0.00,Acu-Link.com,2013-03-04 23:12:00,
2013-03-04 16:27:00,76.5,29.8,29.61,West,270,15.5,-999.0,18,-99.99,,,0.00,Acu-Link.com,2013-03-04 23:27:00,
2013-03-04 16:42:00,76.3,29.7,29.63,WSW,247,11.4,-999.0,18,-99.99,,,0.00,Acu-Link.com,2013-03-04 23:42:00,
2013-03-04 16:57:00,75.2,28.8,29.63,NNW,337,9.4,-999.0,18,-99.99,,,0.00,Acu-Link.com,2013-03-04 23:57:00,
2013-03-04 17:12:00,74.3,28.0,29.64,NNE,22,9.9,-999.0,18,-99.99,,,0.00,Acu-Link.com,2013-03-05 00:12:00,
2013-03-04 17:27:00,73.2,27.2,29.66,WNW,292,10.9,-999.0,18,-99.99,,,0.00,Acu-Link.com,2013-03-05 00:27:00,
2013-03-04 17:43:00,72.1,24.9,29.67,NNW,337,7.8,-999.0,17,-99.99,,,0.00,Acu-Link.com,2013-03-05 00:43:00,
2013-03-04 17:58:00,70.9,23.9,29.68,WNW,292,13.0,-999.0,17,-99.99,,,0.00,Acu-Link.com,2013-03-05 00:58:00,
2013-03-04 18:13:00,70.0,23.2,29.69,NW,315,8.9,-999.0,17,-99.99,,,0.00,Acu-Link.com,2013-03-05 01:13:00,
2013-03-04 18:28:00,68.9,23.7,29.71,West,270,8.3,-999.0,18,-99.99,,,0.00,Acu-Link.com,2013-03-05 01:28:00,
2013-03-04 18:43:00,68.2,24.4,29.72,NW,315,8.9,-999.0,19,-99.99,,,0.00,Acu-Link.com,2013-03-05 01:43:00,
2013-03-04 18:58:00,67.3,24.9,29.73,East,90,4.7,-999.0,20,-99.99,,,0.00,Acu-Link.com,2013-03-05 01:58:00,
2013-03-04 19:13:00,66.6,24.3,29.75,NNW,337,9.4,-999.0,20,-99.99,,,0.00,Acu-Link.com,2013-03-05 02:13:00,
2013-03-04 19:28:00,65.5,24.5,29.76,ENE,67,2.7,-999.0,21,-99.99,,,0.00,Acu-Link.com,2013-03-05 02:28:00,
2013-03-04 19:44:00,64.8,24.0,29.77,NNW,337,5.8,-999.0,21,-99.99,,,0.00,Acu-Link.com,2013-03-05 02:44:00,
2013-03-04 19:59:00,64.2,23.5,29.79,NNW,337,6.3,-999.0,21,-99.99,,,0.00,Acu-Link.com,2013-03-05 02:59:00,
2013-03-04 20:14:00,63.5,25.0,29.80,WNW,292,7.8,-999.0,23,-99.99,,,0.00,Acu-Link.com,2013-03-05 03:14:00,
2013-03-04 20:29:00,62.8,24.5,29.81,NW,315,3.2,-999.0,23,-99.99,,,0.00,Acu-Link.com,2013-03-05 03:29:00,
2013-03-04 20:44:00,61.9,24.7,29.82,NW,315,2.2,-999.0,24,-99.99,,,0.00,Acu-Link.com,2013-03-05 03:44:00,
2013-03-04 20:59:00,60.4,25.4,29.84,NW,315,2.7,-999.0,26,-99.99,,,0.00,Acu-Link.com,2013-03-05 03:59:00,
2013-03-04 21:14:00,59.2,25.2,29.85,NNW,337,2.7,-999.0,27,-99.99,,,0.00,Acu-Link.com,2013-03-05 04:14:00,
2013-03-04 21:29:00,57.6,25.6,29.86,North,0,2.2,-999.0,29,-99.99,,,0.00,Acu-Link.com,2013-03-05 04:29:00,
2013-03-04 21:44:00,56.7,25.6,29.86,NW,315,3.2,-999.0,30,-99.99,,,0.00,Acu-Link.com,2013-03-05 04:44:00,
2013-03-04 21:59:00,55.6,25.5,29.86,West,270,1.1,-999.0,31,-99.99,,,0.00,Acu-Link.com,2013-03-05 04:59:00,
2013-03-04 22:15:00,55.0,25.7,29.87,NW,315,1.7,-999.0,32,-99.99,,,0.00,Acu-Link.com,2013-03-05 05:15:00,
2013-03-04 22:30:00,54.3,25.1,29.87,NNE,22,3.7,-999.0,32,-99.99,,,0.00,Acu-Link.com,2013-03-05 05:30:00,
2013-03-04 22:45:00,54.9,24.8,29.88,NNW,337,2.7,-999.0,31,-99.99,,,0.00,Acu-Link.com,2013-03-05 05:45:00,
2013-03-04 23:00:00,54.9,24.8,29.88,NNW,337,1.7,-999.0,31,-99.99,,,0.00,Acu-Link.com,2013-03-05 06:00:00,
2013-03-04 23:15:00,55.2,25.1,29.89,NW,315,2.2,-999.0,31,-99.99,,,0.00,Acu-Link.com,2013-03-05 06:15:00,
2013-03-04 23:30:00,58.3,24.5,29.90,NNW,337,8.9,-999.0,27,-99.99,,,0.00,Acu-Link.com,2013-03-05 06:30:00,
2013-03-04 23:45:00,58.5,23.7,29.91,NNW,337,3.2,-999.0,26,-99.99,,,0.00,Acu-Link.com,2013-03-05 06:45:00,